FENGYUN 1C DEB, 38519

Orbit data source: Space-Track

FENGYUN 1C DEB, 38519 is space debris in SSO originally from a launch on Mon, 10 May 1999 UTC launched from the Taiyaun Space Center, China (TSC). Fengyun 1C debris stems from the Chinese weather satellite Fengyun-1C, which was intentionally destroyed by a Chinese anti-satellite missile in 2007. This event dramatically increased the amount of space debris, with thousands of trackable fragments posing hazards to satellites and human spaceflight. The Fengyun 1C debris cloud has become a focal point in discussions about space sustainability and the need for international regulations to prevent the creation of new debris.

Loading next visibility...
Identifier
38519, 1999-025ETE
Orbit
SSO
Country
Flag of CNCN / PRC
Related business
Manufacturer
Unknown
Mission
Spacecraft
Bus & Motor
Unknown
Mass
Unknown
Launch date (UTC)
1999-05-10 (27 years ago)
Launch vehicle
Unknown
Launch site
Taiyaun Space Center, China (TSC)
Object type
Payload
Rocket body
Debris
Shape & HBR
Unknown shape, 1.1 m
Radar Cross Section
Medium (>0.1 m² and <1 m²)

Expand to show TLE details & history
Last TLE update: 2 days ago

TLE from 2 days ago
0 FENGYUN 1C DEB
1 38519U 99025ETE 26207.17406243  .00001898  00000-0  14477-2 0  9996
2 38519  99.5476 192.9881 0168118 160.9355 199.8196 13.88419013878655
Epoch: 2026-07-26T04:10Z
TLE epoch observation values (Epoch: 2026-07-26T04:10:38.993Z)
Latitude
-0.00002°
Longitude
-173.55015°
Altitude
1,052.927 km
Speed
7.267 km/s
True Right ascension
12h 51m 57s
True Declination
0° 00' 00"
Sunlit
Object was in daylight at epoch
Visualization orbit readout
Latitude
Unknown
Longitude
Unknown
Altitude
Unknown
Speed
Unknown
Apparent Right ascension
Unknown
Apparent Declination
Unknown
Sunlit
N/A
Visualization observer readout
Local Sidereal Time
04:21:57
Azimuth
Unknown
Elevation
Unknown
Doppler factor
Unknown
Orbital elements
Apogee altitude
1,054.305 km
Perigee altitude
808.531 km
Semi-major axis
7,309.555 km
Eccentricity
0.01681
Inclination
99.5476°
RAAN
192.9881°
Arg. of periapsis
160.9355°
True anomaly
199.17909°
Mean anomaly
199.8196°
Eccentric anomaly
199.49809°
Mean motion
3.47302 °/min
Orbital period
103.66 mins
BSTAR
0.0014477
Loading maneuver chart data...
Computing Atmospheric mass density...

Documentation

Showing up to 5 results
|